K5KVN-2 Weather Reports


time (UTC)temp
F
wind
direction
speed
knots
gust
knots
rain 1hr
in
rain 24hr
in
rain mn
in
humidity
%
barometer
mb
20260509013139 64 231 0.9 3.5 0.04 0.04 0.04 84 1011.9
20260509012625 64 267 1.7 3.5 0.02 0.02 0.02 80 1011.3
20260509011629 64 322 1.7 2.6 0.02 0.02 0.01 82 1010.7
20260509010140 66 300 1.7 2.6 0.01 0.01 0.01 77 1010.4
20260509005141 67 340 3.5 8.7 0.01 0.01 0.01 71 1010.4
20260509004142 69 325 4.3 7.0 0.00 0.00 0.00 67 1010.7
20260509002139 69 304 1.7 2.6 0.00 0.00 0.00 63 1009.7
20260509001139 70 301 0.9 2.6 0.00 0.00 0.00 64 1009.3
20260509000134 71 248 0.0 0.9 0.00 0.00 0.00 59 1009.0
20260508235131 72 162 0.0 0.9 0.00 0.00 0.00 60 1009.0
20260508234131 72 296 0.9 1.7 0.00 0.00 0.00 56 1009.2
20260508233614 73 284 0.9 5.2 0.00 0.00 0.00 53 1009.1
20260508232128 74 274 2.6 6.1 0.00 0.00 0.00 51 1009.2
20260508231126 75 301 1.7 5.2 0.00 0.00 0.00 49 1008.9
20260508230125 75 225 1.7 6.1 0.00 0.00 0.00 48 1008.8
20260508225124 75 209 2.6 8.7 0.00 0.00 0.00 48 1009.0
20260508224610 75 207 4.3 8.7 0.00 0.00 0.00 49 1008.9
20260508223119 75 180 4.3 8.7 0.00 0.00 0.00 48 1008.7
20260508222121 76 230 5.2 9.6 0.00 0.00 0.00 47 1008.7
20260508221117 76 194 7.0 12.2 0.00 0.00 0.00 48 1008.9
20260508220117 76 211 5.2 10.4 0.00 0.00 0.00 48 1008.9
20260508215115 76 205 4.3 8.7 0.00 0.00 0.00 47 1009.0
20260508214116 76 192 6.1 11.3 0.00 0.00 0.00 50 1009.0
20260508213115 76 175 7.8 13.9 0.00 0.00 0.00 49 1009.2
20260508212115 76 205 6.1 13.0 0.00 0.00 0.00 51 1009.3
20260508211115 76 179 6.1 12.2 0.00 0.00 0.00 51 1009.2
20260508210110 76 190 7.0 14.8 0.00 0.00 0.00 51 1009.5
20260508205110 76 211 7.0 12.2 0.00 0.00 0.00 52 1009.5
20260508204109 76 155 7.0 13.0 0.00 0.00 0.00 50 1009.6
20260508203556 76 227 7.8 15.6 0.00 0.00 0.00 48 1009.6
20260508202107 76 194 7.8 16.5 0.00 0.00 0.00 49 1009.7
20260508201107 76 181 7.0 13.0 0.00 0.00 0.00 48 1009.7
20260508200108 75 157 7.0 14.8 0.00 0.00 0.00 48 1010.0
20260508195107 75 190 7.0 14.8 0.00 0.00 0.00 46 1010.5
20260508194109 76 235 6.1 13.9 0.00 0.00 0.00 47 1010.4
20260508193109 75 161 7.0 14.8 0.00 0.00 0.00 44 1010.5
20260508192108 75 172 7.0 12.2 0.00 0.00 0.00 48 1010.5
20260508191109 74 185 7.0 13.9 0.00 0.00 0.00 50 1010.7
20260508190109 75 189 7.8 13.0 0.00 0.00 0.00 46 1010.9
20260508185543 74 190 7.0 16.5 0.00 0.00 0.00 52 1010.8
20260508183105 74 198 6.1 12.2 0.00 0.00 0.00 49 1011.1
20260508182107 74 196 7.8 13.9 0.00 0.00 0.00 51 1011.4
20260508181549 73 166 6.1 11.3 0.00 0.00 0.00 51 1011.5
20260508180537 73 200 4.3 9.6 0.00 0.00 0.00 48 1011.8
20260508175103 72 176 7.0 12.2 0.00 0.00 0.00 52 1012.0
20260508174103 72 235 7.0 13.9 0.00 0.00 0.00 49 1012.1
20260508173552 72 174 6.1 14.8 0.00 0.00 0.00 51 1012.4
20260508172542 71 164 6.1 10.4 0.00 0.00 0.00 50 1012.5
20260508171103 71 186 5.2 13.9 0.00 0.00 0.00 50 1012.8
20260508165103 71 189 6.1 13.9 0.00 0.00 0.00 51 1013.4
20260508164103 71 186 7.8 15.6 0.00 0.00 0.00 49 1013.6
20260508163103 71 180 7.8 15.6 0.00 0.00 0.00 51 1013.4
20260508162103 70 202 7.0 13.0 0.00 0.00 0.00 54 1013.6
20260508161102 70 175 7.0 13.0 0.00 0.00 0.00 56 1013.8
20260508155059 69 189 7.8 13.9 0.00 0.00 0.00 56 1014.2
20260508154101 68 169 9.6 13.9 0.00 0.00 0.00 59 1014.2
20260508153056 67 193 8.7 18.2 0.00 0.00 0.00 60 1014.3
20260508152054 67 213 6.1 13.0 0.00 0.00 0.00 62 1014.6
20260508151058 66 161 7.0 13.0 0.00 0.00 0.00 66 1014.6
20260508150544 66 179 7.0 12.2 0.00 0.00 0.00 67 1014.7
20260508145054 65 234 8.7 15.6 0.00 0.00 0.00 70 1014.8
20260508144050 64 175 7.0 13.9 0.00 0.00 0.00 68 1014.8
20260508143527 63 223 7.8 13.9 0.00 0.00 0.00 71 1014.8
20260508142051 62 157 9.6 20.0 0.00 0.00 0.00 72 1014.8
20260508141050 62 171 7.8 14.8 0.00 0.00 0.00 75 1014.9
20260508140051 61 179 6.1 11.3 0.00 0.00 0.00 77 1014.9
20260508135052 60 192 6.1 12.2 0.00 0.00 0.00 80 1015.0
20260508134528 59 180 5.2 12.2 0.00 0.00 0.00 81 1015.1
20260508133052 58 196 4.3 6.1 0.00 0.00 0.00 82 1015.0
20260508132048 57 165 4.3 8.7 0.00 0.00 0.00 83 1015.0
20260508131047 56 188 3.5 6.1 0.00 0.00 0.00 85 1015.1
20260508130042 54 184 1.7 3.5 0.00 0.00 0.00 84 1015.1
20260508125042 54 181 1.7 5.2 0.00 0.00 0.00 84 1015.0
20260508124042 53 209 0.0 0.0 0.00 0.00 0.00 84 1014.9
20260508123040 52 196 0.0 0.0 0.00 0.00 0.00 83 1014.9
20260508122038 51 183 0.0 0.0 0.00 0.00 0.00 86 1014.9
20260508121038 50 183 0.0 0.0 0.00 0.00 0.00 86 1014.8
20260508120517 49 242 0.0 0.0 0.00 0.00 0.00 86 1015.0
20260508115038 48 242 0.0 0.0 0.00 0.00 0.00 86 1014.9
20260508114034 47 171 0.0 0.0 0.00 0.00 0.00 88 1014.6
20260508113030 47 171 0.0 0.0 0.00 0.00 0.00 87 1014.6
20260508112031 47 171 0.0 0.0 0.00 0.00 0.00 88 1014.5
20260508110032 46 169 0.0 0.0 0.00 0.00 0.00 91 1014.2
20260508105031 45 169 0.0 0.0 0.00 0.00 0.00 91 1014.2
20260508104030 45 169 0.0 0.0 0.00 0.00 0.00 89 1014.2
20260508103033 46 169 0.0 0.0 0.00 0.00 0.00 89 1014.1
20260508102030 46 169 0.0 0.0 0.00 0.00 0.00 90 1014.1
20260508101029 46 169 0.0 0.0 0.00 0.00 0.00 88 1014.1
20260508100030 46 169 0.0 0.0 0.00 0.00 0.00 88 1014.1
20260508095029 46 169 0.0 0.0 0.00 0.00 0.00 88 1013.9
20260508094028 47 169 0.0 0.0 0.00 0.00 0.00 88 1013.9
20260508093029 47 169 0.0 0.0 0.00 0.00 0.00 87 1013.7
20260508092503 47 169 0.0 0.0 0.00 0.00 0.00 88 1013.7
20260508091028 47 169 0.0 0.0 0.00 0.00 0.00 88 1013.8
20260508090028 47 169 0.0 0.0 0.00 0.00 0.00 87 1013.9
20260508085030 47 169 0.0 0.0 0.00 0.00 0.00 86 1013.9
20260508084503 47 169 0.0 0.0 0.00 0.00 0.00 86 1013.9
20260508083029 48 169 0.0 0.0 0.00 0.00 0.00 85 1014.1
20260508082030 48 169 0.0 0.0 0.00 0.00 0.00 85 1014.2
20260508081028 49 169 0.0 0.0 0.00 0.00 0.00 85 1014.1
20260508080030 49 169 0.0 0.0 0.00 0.00 0.00 83 1014.4
20260508075030 49 169 0.0 0.0 0.00 0.00 0.00 83 1014.5
20260508074030 49 169 0.0 0.0 0.00 0.00 0.00 83 1014.4
20260508073028 49 169 0.0 0.0 0.00 0.00 0.00 84 1014.5
20260508072031 49 169 0.0 0.0 0.00 0.00 0.00 84 1014.6
20260508071457 50 169 0.0 0.0 0.00 0.00 0.00 83 1014.7
20260508070022 51 169 0.0 0.0 0.00 0.00 0.00 81 1014.8
20260508064022 51 169 0.0 0.0 0.00 0.00 0.00 81 1015.1
20260508063022 51 169 0.0 0.0 0.00 0.00 0.00 82 1015.1
20260508062023 50 169 0.0 0.0 0.00 0.00 0.00 82 1015.3
20260508061455 50 169 0.0 0.0 0.00 0.00 0.00 84 1015.4
20260508060023 49 169 0.0 0.0 0.00 0.00 0.00 85 1015.4
20260508055016 50 169 0.0 0.0 0.00 0.00 0.00 84 1015.4
20260508054457 50 169 0.0 0.0 0.00 0.00 0.00 83 1015.5
20260508053017 51 169 0.0 0.0 0.00 0.00 0.00 82 1015.3
20260508052017 51 169 0.0 0.0 0.00 0.00 0.00 81 1015.5
20260508051013 51 169 0.0 0.0 0.00 0.00 0.00 82 1015.5
20260508050015 50 169 0.0 0.0 0.00 0.00 0.00 84 1015.4
20260508045500 50 169 0.0 0.0 0.00 0.00 0.00 84 1015.4
20260508044009 50 169 0.0 0.0 0.00 0.00 0.00 83 1015.5
20260508043010 50 169 0.0 0.9 0.00 0.00 0.00 83 1015.7
20260508042009 51 169 0.0 0.9 0.00 0.00 0.00 83 1015.7
20260508041009 51 184 0.0 0.0 0.00 0.00 0.00 81 1015.9
20260508040009 52 184 0.0 2.6 0.00 0.00 0.00 79 1015.9
20260508035007 52 227 0.0 1.7 0.00 0.00 0.00 79 1016.0
20260508034013 53 180 0.0 1.7 0.00 0.00 0.00 78 1016.0
20260508033008 54 200 0.0 1.7 0.00 0.00 0.00 74 1015.9
20260508032009 53 147 0.0 0.0 0.00 0.00 0.00 75 1015.9
20260508031007 53 147 0.0 0.9 0.00 0.00 0.00 75 1015.7
20260508030002 53 266 0.0 0.0 0.00 0.00 0.00 76 1015.7
20260508025002 53 266 0.0 1.7 0.00 0.00 0.00 76 1015.6
20260508024004 54 238 0.0 2.6 0.00 0.00 0.00 77 1015.5
20260508023003 55 5 0.0 0.0 0.00 0.00 0.00 74 1015.4
20260508022003 55 5 0.9 1.7 0.00 0.00 0.00 70 1015.3
20260508021003 56 41 0.0 1.7 0.00 0.00 0.00 70 1015.3
20260508020437 57 103 0.0 0.0 0.00 0.00 0.00 65 1015.3
20260508015001 57 103 0.0 0.9 0.00 0.00 0.00 63 1015.1
20260508014002 59 99 0.0 0.0 0.00 0.00 0.00 63 1014.9